Вернуться в каталог

STARLINK-6341

АктивенСвязьVLEO
NORAD 56786·PAYLOAD·🇺🇸 United States

Запущен May 31, 2023 с Vandenberg Space Force Base

Loading…

Ближайшие Пролёты (ближайшие 24 часа)

TLE

СвежийSource: CelesTrak SupGP

Эпоха: Sep 15, 2026, 02:39 UTC

1 56786C 23078V   26258.11090278  .00651400  00000+0  52812-1 0  2585
2 56786  70.0008 206.9085 0003095 272.2245 160.6437 14.99279043    16

Отслеживайте STARLINK-6341 в реальном времени с AllMySat

Download on the App Store